Change the Weather History Date:

Sunday, August 11, 2013

  Actual Average Record
Temperature  
Mean Temperature 75 °F 78 °F  
Max Temperature 90 °F 94 °F 104 °F (1958)
Min Temperature 60 °F 63 °F 48 °F (1928)
Degree Days  
Heating Degree Days 0 0  
Month to date heating degree days 0 0  
Since 1 June heating degree days 0 17  
Since 1 July heating degree days 0 0  
Cooling Degree Days 10 13  
Month to date cooling degree days 139 159  
Year to date cooling degree days 1207 952  
Since 1 June cooling degree days 1127 888  
Growing Degree Days 25 (Base 50)    
Moisture  
Dew Point 43 °F    
Average Humidity 39    
Maximum Humidity 60    
Minimum Humidity 17    
Precipitation  
Precipitation 0.00 in 0.02 in 0.58 in (1945)
Month to date precipitation 0.70 0.29  
Year to date precipitation 3.39 4.83  
Sea Level Pressure  
Sea Level Pressure 30.01 in    
Wind  
Wind Speed 6 mph (ESE)    
Max Wind Speed 21 mph    
Max Gust Speed 25 mph    
Visibility 10 miles    
Events      
T = Trace of Precipitation, MM = Missing Value Source: NWS Daily Summary

Daily Weather History Graph

Daily Weather History Graph

Search for Another Location

Airport or City:

Trip Planner

Search our weather history database for the weather conditions in past years. The results will help you decide how hot, cold, wet, or windy it might be!

Date:

Astronomy

Aug. 11, 2013 Rise Set
Actual Time 6:29 AM MDT 8:18 PM MDT
Civil Twilight 6:00 AM MDT 8:46 PM MDT
Nautical Twilight 5:26 AM MDT 9:21 PM MDT
Astronomical Twilight 4:48 AM MDT 9:58 PM MDT
Moon 11:17 AM MDT (8/11) 10:39 PM MDT (8/11)
Length of Visible Light 14h 45m
Length of Day
13h 48m
Waxing Crescent, 22% of the Moon is Illuminated
Aug 11
Waxing Crescent
Aug 14
First Quarter
Aug 20
Full
Aug 28
Last Quarter
Sep 5
New

Hourly Weather History & Observations

Time (MDT) Temp. Dew Point Humidity Pressure Visibility Wind Dir Wind Speed Gust Speed Precip Events Conditions
12:53 AM 66.0 °F 46.9 °F 50% 30.05 in 10.0 mi SE 9.2 mph - N/A   Clear
1:53 AM 64.9 °F 46.9 °F 52% 30.05 in 10.0 mi East 8.1 mph - N/A   Clear
2:53 AM 64.0 °F 46.9 °F 54% 30.06 in 10.0 mi ESE 5.8 mph - N/A   Clear
3:53 AM 64.0 °F 46.9 °F 54% 30.06 in 10.0 mi East 9.2 mph - N/A   Clear
4:53 AM 63.0 °F 46.9 °F 56% 30.07 in 10.0 mi East 5.8 mph - N/A   Clear
5:53 AM 62.1 °F 46.0 °F 56% 30.07 in 10.0 mi SE 9.2 mph - N/A   Clear
6:53 AM 61.0 °F 46.9 °F 60% 30.09 in 10.0 mi ESE 9.2 mph - N/A   Clear
7:53 AM 64.0 °F 48.0 °F 56% 30.09 in 10.0 mi ESE 6.9 mph - N/A   Clear
8:53 AM 68.0 °F 48.0 °F 49% 30.10 in 10.0 mi East 17.3 mph - N/A   Clear
9:53 AM 71.1 °F 46.9 °F 42% 30.10 in 10.0 mi East 8.1 mph - N/A   Clear
10:53 AM 73.9 °F 46.0 °F 37% 30.09 in 10.0 mi Variable 3.5 mph - N/A   Clear
11:53 AM 78.1 °F 45.0 °F 31% 30.06 in 10.0 mi Calm Calm - N/A   Clear
12:53 PM 81.0 °F 44.1 °F 27% 30.04 in 10.0 mi Calm Calm - N/A   Clear
1:53 PM 82.0 °F 43.0 °F 25% 30.01 in 10.0 mi Calm Calm - N/A   Clear
2:53 PM 86.0 °F 42.1 °F 21% 29.97 in 10.0 mi Variable 5.8 mph - N/A   Clear
3:53 PM 88.0 °F 41.0 °F 19% 29.94 in 10.0 mi Variable 4.6 mph - N/A   Clear
4:53 PM 89.1 °F 39.9 °F 18% 29.92 in 10.0 mi Variable 6.9 mph - N/A   Clear
5:53 PM 87.1 °F 37.0 °F 17% 29.90 in 10.0 mi NW 4.6 mph - N/A   Clear
6:53 PM 86.0 °F 39.0 °F 19% 29.89 in 10.0 mi SSW 6.9 mph - N/A   Clear
7:53 PM 84.0 °F 37.9 °F 19% 29.89 in 10.0 mi SE 3.5 mph - N/A   Clear
8:53 PM 79.0 °F 39.9 °F 25% 29.91 in 10.0 mi WSW 3.5 mph - N/A   Clear
9:53 PM 77.0 °F 39.0 °F 25% 29.93 in 10.0 mi West 3.5 mph - N/A   Clear
10:53 PM 77.0 °F 37.9 °F 24% 29.93 in 10.0 mi WNW 9.2 mph - N/A   Clear
11:53 PM 75.9 °F 39.9 °F 27% 29.93 in 10.0 mi Calm Calm - N/A   Clear